map of BRC home
BRC - Airport
Location
City:  San Carlos de Bariloche, Río Negro, Argentina
Near (Alt.):Bariloche
Name:San Carlos de Bariloche Airport
ICAO:SAZS
IATA:BRC

Details
Type:Airport (Aerodrome, Airfield)
Use:Public/Civil
Latitude:41°09'04"S (-41.151171)
Longitude:71°09'27"W (-71.157541)
Datum:WGS 1984
Elevation:2776 ft (846 m)
Variation:6.72°E (WMM2015 magnetic declination)
-0.12° annual change
Runways:1
Longest:7703 × 157 ft (2348 × 48 m), paved

Time
Time Zone:UTC-3
Local Time:

Weather
METAR:SAZS 241000Z 15006KT 6000 SN FEW004 BKN008 OVC020 01/00 Q1014
TAF:SAZS 240500Z 2406/2506 16005KT 8000 SCT005 OVC015 TX04/2417Z TNM03/2405Z
BECMG 2408/2410 5000 RADZ BKN010 OVC030

Related Locations
Nearby:
Farthest:RLK: 12381 mi / 19925 km
Bayannur [Bayannur Tianjitai Airport], 15, CN

Find:

   beyond  
but within

Other Information
Maps:
NOTAMs:
Links:
Sources:

  
flag of Argentina   

Sectional Chart

Flight Planning
at skyvector.com

Satellite Image

Google Maps Satellite view

 

Copyright © 2004-2017 Karl L. Swartz. All rights reserved.
The Great Circle Mapper name and logo are trademarks of the Great Circle Mapper.
All other trademarks mentioned herein belong to their respective owners.
Please see credits for attibutions and further copyright information.

  Follow gcmap on Facebook Follow gcmap on Twitter Follow gcmap on Google+ GCmap on LinkedIn

hCard Microformat

Geo Microformat